Theta_e
340 341 341 340 338 339 339 340 339 339 339 338 339 339 337 337 337 336 336 337 336 336 336 336 335 335 335 333 332 334 335 336 337 337 336 336 336 335 336 336 336 335 335 334 333 333 333 334 334 333 334 334 334 333 333 332 332 331 331 331 330 330 330 330 331 332 332 333 332 332 332 331 332 331 331 331 331 331 331 331 331 331 331 331 330
339 341 342 341 339 339 339 341 340 340 340 339 339 338 337 337 336 336 336 336 336 336 336 335 334 334 334 333 331 333 335 336 336 336 336 336 336 335 335 335 335 334 334 333 333 333 333 333 333 333 334 334 334 333 333 332 332 331 331 331 330 330 331 331 332 332 332 332 332 331 331 330 331 331 331 331 331 331 331 331 330 330 331 330 330
340 340 342 342 341 340 340 341 341 341 340 339 338 337 337 336 335 335 335 336 336 335 335 334 334 334 334 333 332 333 335 336 336 336 336 336 335 334 334 334 334 333 333 333 333 333 333 333 334 334 334 334 333 333 333 333 333 332 331 331 330 331 331 331 332 332 331 331 331 331 331 330 330 331 330 330 330 330 330 330 330 330 330 330 330
341 340 342 343 342 341 340 341 341 341 340 339 338 337 336 336 335 335 334 335 335 335 335 334 333 334 334 334 335 334 334 336 337 336 336 335 334 333 333 333 333 332 332 333 333 333 333 333 334 334 335 334 333 333 333 333 333 333 332 331 331 331 331 331 332 332 332 331 331 331 331 331 331 330 330 330 330 330 330 329 329 329 330 330 329
342 341 342 343 343 341 340 341 341 341 340 340 339 337 336 336 336 334 334 335 335 334 334 334 333 334 334 334 336 336 335 337 337 336 335 334 333 333 332 333 332 332 332 332 332 332 332 333 333 333 334 334 334 334 333 333 333 332 333 332 332 331 330 330 331 331 332 332 330 331 330 330 331 330 330 329 328 330 329 329 329 329 330 329 329
342 340 340 342 343 342 341 341 341 341 340 340 338 336 336 336 335 334 334 334 335 334 334 334 334 334 335 335 335 335 334 336 336 335 334 333 332 332 332 332 332 332 332 332 332 332 332 332 332 332 333 332 333 334 333 333 333 332 332 332 332 332 331 331 331 331 332 332 331 332 331 330 331 330 331 329 328 329 328 328 329 329 329 328 328
341 340 339 341 343 342 342 341 341 341 340 339 338 336 336 336 335 334 334 334 334 335 335 335 334 334 334 334 334 333 333 334 335 334 333 332 331 331 331 332 331 332 332 331 331 331 331 331 331 332 332 332 333 334 334 333 333 332 332 332 332 332 332 331 331 331 332 331 331 332 332 331 330 330 331 330 330 329 327 328 328 327 327 327 326
340 339 338 340 342 342 342 341 341 340 340 339 338 336 335 334 334 334 333 333 334 334 334 334 334 335 334 332 332 332 333 335 334 332 331 330 331 330 330 330 331 331 331 331 331 331 331 330 331 331 331 331 332 333 334 333 333 332 332 332 332 332 332 331 331 331 331 331 331 331 331 331 331 330 330 330 330 329 327 328 327 326 325 325 325
338 337 338 340 342 341 341 341 341 340 340 339 338 335 333 332 332 332 332 331 332 334 334 334 335 334 333 333 333 334 335 335 333 331 330 330 330 330 330 329 330 330 331 331 330 330 330 330 330 331 331 330 330 331 332 333 333 333 333 332 332 332 331 332 331 331 330 331 331 330 330 331 330 331 330 330 329 329 328 328 327 325 325 324 324
336 336 338 340 341 340 341 341 340 340 338 336 336 334 332 331 331 330 330 330 331 332 333 334 334 333 332 331 330 333 335 332 331 331 331 330 330 330 329 328 329 330 330 330 330 329 330 330 330 330 331 331 330 330 331 333 333 333 333 333 333 332 331 332 332 330 329 331 331 329 330 330 330 330 331 330 330 329 328 328 328 327 325 324 323
336 336 338 341 341 340 340 339 338 337 333 332 333 332 331 330 329 329 330 330 330 331 332 332 333 332 331 330 329 332 333 331 330 331 330 329 329 329 329 328 328 329 329 330 330 330 329 330 329 329 330 330 330 329 330 332 333 333 333 333 332 331 331 332 332 331 329 330 331 329 329 330 329 329 330 329 329 330 329 328 328 327 325 324 323
336 336 338 340 340 339 338 336 336 334 329 329 332 332 330 330 329 328 329 329 330 330 330 331 332 332 330 331 333 333 332 331 331 330 329 329 329 328 328 328 328 328 328 329 330 330 329 329 328 328 328 328 328 328 329 330 332 333 333 332 332 331 331 332 332 332 330 329 330 330 329 330 330 329 328 328 329 329 328 328 327 326 325 324 322
336 337 338 338 338 337 336 335 335 331 327 329 331 331 331 331 329 328 328 329 330 330 330 330 333 333 330 332 335 334 332 331 331 330 329 329 329 328 328 327 327 327 328 329 329 330 329 328 327 327 327 327 327 327 327 328 330 330 332 332 331 331 331 331 331 332 331 330 330 330 330 329 329 329 328 328 328 328 328 328 326 325 324 323 321
337 337 337 337 337 338 336 335 334 330 328 329 329 331 332 331 330 329 328 329 330 330 330 331 333 333 332 333 335 333 332 331 330 330 329 329 329 328 328 327 326 327 327 328 329 329 328 328 327 327 327 327 327 328 328 328 329 328 329 331 331 331 332 331 331 331 331 331 331 330 330 330 329 329 329 328 328 328 328 327 326 325 323 322 321
337 337 336 337 338 337 335 334 334 332 331 330 329 331 332 331 331 330 328 329 329 330 331 332 333 333 332 333 332 332 332 331 330 330 330 330 329 328 328 327 326 326 327 328 329 328 328 328 327 327 327 327 327 328 328 328 329 327 327 330 331 331 332 331 331 331 331 331 331 330 330 329 330 330 329 328 327 327 327 326 325 323 322 321 320
337 337 336 337 338 336 334 334 335 334 332 331 331 331 332 331 331 330 329 329 329 330 331 331 332 331 331 331 331 331 332 331 330 330 330 329 328 328 327 326 327 327 327 328 328 328 328 328 327 325 325 326 327 327 326 327 327 327 326 329 329 329 330 331 330 331 331 331 331 331 330 330 330 330 329 328 328 327 326 325 323 321 321 321 320
336 336 335 336 336 334 334 335 336 333 331 331 330 331 331 331 331 330 330 330 329 330 330 331 331 331 330 330 330 331 332 332 331 330 330 329 328 327 327 327 327 326 327 328 328 327 327 327 326 324 323 325 326 325 325 325 326 326 326 326 326 326 327 327 328 330 330 330 331 331 331 330 330 330 329 329 328 327 325 323 322 320 320 320 319
335 335 334 335 334 334 334 335 335 333 330 330 330 331 332 331 330 330 330 331 331 331 331 331 331 330 329 330 330 330 332 333 330 330 329 329 328 327 327 328 327 326 326 327 328 327 327 326 325 323 322 323 325 325 324 324 324 325 324 324 324 324 324 325 326 328 329 330 331 331 331 330 330 331 330 329 329 327 323 321 320 319 318 318 318
333 333 333 333 333 333 333 334 334 333 331 331 331 332 332 331 330 330 331 331 331 331 331 331 331 330 330 330 330 330 332 332 330 329 329 329 328 327 328 328 327 326 326 326 327 327 326 326 324 323 322 322 324 325 324 323 323 323 322 321 322 322 322 323 325 326 329 330 330 331 331 330 330 331 330 329 328 326 321 319 320 319 318 318 317
332 332 331 331 332 332 332 333 334 333 332 332 331 332 332 331 331 330 331 331 331 331 331 331 330 330 331 331 330 331 332 331 330 329 328 328 327 327 328 328 327 326 326 326 326 326 326 325 324 322 321 320 322 324 323 322 322 321 320 320 320 321 320 321 322 324 327 329 329 330 330 330 330 329 328 328 327 324 321 319 319 319 319 318 317
332 332 331 331 332 333 332 333 333 333 333 332 332 332 331 331 331 331 331 331 331 331 331 331 330 330 330 330 330 330 331 331 329 328 328 328 327 327 328 327 327 326 326 326 326 325 325 325 323 322 320 319 321 323 322 321 321 321 320 319 319 319 319 319 320 322 324 326 326 326 327 329 329 327 326 325 324 323 321 319 319 319 319 319 318
331 331 330 331 333 332 332 333 332 332 332 332 332 332 332 332 331 331 331 332 331 331 331 331 330 329 329 330 330 331 330 330 329 328 328 328 327 327 327 327 326 326 325 325 325 324 324 324 323 321 318 318 320 322 322 320 320 320 319 319 318 318 319 319 319 321 323 325 324 324 325 327 327 325 323 322 321 321 320 319 319 319 319 319 319
327 327 327 330 331 331 331 332 332 332 332 331 331 331 332 332 331 331 332 331 331 331 331 332 332 331 330 330 330 331 330 329 328 329 328 327 327 326 326 326 325 325 324 324 323 323 323 323 321 320 318 317 319 321 322 320 319 319 318 318 317 317 318 319 319 319 320 323 323 323 324 325 325 324 322 320 320 320 319 319 319 319 319 319 319
323 323 324 327 328 327 328 329 330 330 330 330 331 331 331 331 331 331 331 331 331 331 332 332 332 331 331 331 330 330 330 328 329 328 327 326 327 326 326 325 324 323 323 323 322 321 322 322 320 319 317 316 317 320 321 320 319 318 317 317 317 317 318 319 318 319 319 320 321 322 323 324 324 323 322 320 320 320 319 319 319 319 319 320 320
319 320 322 324 325 325 325 326 327 328 328 328 329 330 330 330 332 332 331 331 331 331 331 331 332 331 331 330 329 330 330 329 329 328 327 327 326 326 326 325 323 322 322 322 321 320 321 321 319 318 317 317 316 317 319 320 319 319 318 317 317 317 318 318 318 318 318 319 320 320 320 321 321 321 320 319 319 319 318 318 318 318 318 319 320
317 318 320 321 322 324 325 325 325 325 326 327 328 329 328 328 329 331 331 331 331 331 331 331 330 328 326 326 327 328 330 330 329 328 327 327 326 326 326 325 323 322 321 320 320 319 319 319 318 317 317 316 316 316 317 318 319 319 318 318 318 318 318 317 317 317 318 319 319 319 319 320 320 319 319 319 318 318 318 317 318 318 317 318 319
315 316 316 317 318 319 322 324 324 324 325 325 326 327 327 327 326 328 330 330 330 331 331 330 328 325 324 324 324 325 328 330 329 328 327 326 326 325 325 324 323 322 320 319 319 319 318 318 318 317 316 316 317 317 317 318 318 318 318 318 319 318 318 318 317 317 318 318 318 318 318 318 319 319 319 319 319 319 318 318 318 318 317 318 318
313 313 313 313 313 314 316 319 321 322 322 323 324 325 325 325 326 326 328 328 329 330 329 329 328 326 325 323 322 324 326 327 328 327 326 326 325 325 325 324 323 321 319 318 318 318 319 319 318 317 317 317 317 317 318 318 318 318 318 319 318 318 318 318 318 318 318 319 318 319 318 318 319 319 319 320 320 319 319 319 318 318 318 318 318
311 310 310 310 310 311 313 314 315 317 318 320 321 321 323 324 325 326 326 326 327 328 328 328 327 326 325 323 323 324 323 323 325 326 325 325 324 324 323 323 322 321 320 319 318 317 317 318 319 319 318 317 318 318 318 318 318 318 318 318 319 318 318 317 318 318 318 318 319 319 320 320 319 319 318 319 319 318 319 320 319 319 319 318 318
309 308 309 308 308 309 310 310 311 312 313 315 315 316 318 320 321 323 324 325 325 326 326 326 325 324 323 323 324 324 322 322 324 325 324 324 324 323 323 322 321 320 320 320 320 319 318 318 319 319 319 320 320 319 317 317 318 318 319 319 318 318 318 317 317 318 318 318 319 319 320 318 317 317 317 318 318 317 318 318 318 318 319 318 318
307 307 307 307 307 308 308 307 308 308 310 311 312 312 313 315 317 319 321 323 323 324 324 324 324 323 323 323 323 322 322 322 322 322 322 322 322 322 322 322 320 318 318 318 318 319 319 318 319 319 321 322 320 316 315 315 316 316 318 320 319 318 318 318 318 318 319 319 319 319 319 318 317 317 318 318 318 318 318 318 318 318 318 318 318
305 305 306 305 306 306 307 306 306 306 308 308 309 310 310 312 313 314 316 318 319 320 321 322 323 323 322 322 322 321 320 320 319 319 319 319 318 319 320 320 319 317 317 316 316 317 317 317 319 321 321 319 316 314 314 315 315 314 316 318 320 320 319 319 319 319 320 320 320 321 321 321 320 319 319 320 319 319 319 319 319 319 319 319 318
304 304 304 304 305 305 305 305 305 305 306 306 307 307 308 309 310 311 313 315 315 316 316 318 319 320 320 320 320 320 320 319 318 317 317 316 316 317 317 318 317 316 316 317 317 317 317 318 319 319 318 317 316 315 316 315 315 316 315 316 319 321 321 320 320 321 320 320 321 322 323 324 323 321 320 321 322 321 320 319 319 319 319 319 319
302 302 303 304 304 305 304 304 305 305 305 305 305 305 306 307 308 309 310 311 312 312 313 313 314 315 316 317 317 317 318 318 317 316 316 316 315 316 316 317 317 317 316 316 317 318 318 319 319 317 316 317 317 317 317 316 316 317 316 316 318 321 322 321 321 322 322 322 323 323 323 323 324 323 322 322 323 323 322 321 320 320 320 320 320
301 301 302 303 303 303 304 304 304 304 304 304 305 305 305 305 306 307 307 307 308 308 309 310 310 310 312 314 315 315 315 315 315 315 316 315 315 316 317 318 318 318 317 317 318 318 318 318 317 317 317 317 316 317 318 318 318 318 317 318 319 321 322 322 323 323 323 323 323 323 323 322 323 324 324 323 323 323 324 323 323 322 322 321 321
301 301 301 301 302 302 303 303 303 303 303 303 304 304 304 303 303 304 305 305 306 306 306 307 307 307 308 309 311 312 312 312 313 314 314 314 313 314 315 316 317 316 315 315 316 315 316 317 317 316 316 314 313 314 315 317 318 319 319 320 321 322 323 324 325 324 324 324 323 324 324 323 323 324 324 322 321 321 323 324 324 323 323 322 322
301 301 301 300 301 301 301 302 302 302 302 302 302 302 302 302 302 302 302 303 304 304 303 304 304 305 306 306 307 308 308 308 310 311 311 311 310 310 310 311 311 310 309 310 310 310 310 312 313 311 310 309 309 310 311 313 315 316 318 319 320 322 324 324 324 325 324 324 324 323 322 322 323 323 323 322 320 319 320 322 323 323 323 323 323
301 301 301 300 300 300 300 301 301 301 301 300 300 301 301 301 301 301 301 301 302 302 302 302 302 302 303 304 305 305 305 305 306 306 306 307 307 307 307 308 308 307 306 305 306 307 307 308 308 307 307 307 306 306 307 309 310 311 313 314 316 319 321 322 322 323 322 322 322 321 318 319 321 322 322 321 320 319 320 322 323 323 323 322 322
300 300 300 300 300 300 299 300 300 301 300 299 298 299 299 299 300 300 300 300 300 300 300 300 300 301 301 301 301 301 302 302 302 302 302 303 303 304 305 306 306 305 305 305 306 306 305 306 307 306 306 307 307 306 306 306 306 307 307 309 312 315 316 317 317 317 318 319 320 320 318 318 319 320 321 321 320 320 320 321 321 321 321 320 320
299 299 299 299 299 299 299 299 300 300 300 299 298 298 299 299 299 299 299 299 299 299 299 299 299 300 300 301 301 300 300 299 299 299 299 300 300 300 301 302 302 303 303 303 303 303 302 302 302 302 303 305 306 305 305 304 304 303 303 304 307 309 310 311 312 312 313 315 317 318 318 317 316 317 318 318 318 318 318 319 319 320 320 319 318
298 298 298 298 298 298 298 298 299 299 299 299 299 298 299 299 298 298 298 298 298 298 299 298 298 298 298 299 300 300 300 300 300 299 298 298 298 298 299 300 301 301 301 301 301 302 301 301 300 300 301 301 301 300 301 301 301 301 301 300 302 303 303 304 306 308 310 312 315 316 316 316 315 315 315 315 315 315 315 316 317 318 318 318 317
298 297 297 298 298 298 297 297 298 298 299 299 298 298 298 298 298 298 297 298 298 298 298 298 298 298 298 297 298 298 299 299 300 300 300 299 298 298 299 299 299 299 299 299 300 301 302 302 300 299 299 299 298 298 299 299 299 299 299 299 299 300 299 300 304 307 309 310 311 312 313 312 310 309 310 310 311 311 311 312 313 315 316 316 316
298 298 298 298 298 298 297 297 297 297 298 298 298 298 298 298 298 297 297 297 297 298 298 298 299 298 298 298 297 297 298 298 299 299 300 300 300 300 300 300 300 300 300 301 301 301 302 302 301 300 299 299 298 298 298 297 297 298 298 298 298 298 298 299 301 303 305 307 308 309 309 307 305 305 306 306 307 308 309 310 311 312 312 313 314
298 298 298 298 298 298 298 298 297 297 297 297 297 298 298 297 297 297 296 296 297 297 298 298 298 298 298 298 298 298 299 299 299 299 300 301 301 301 301 301 301 302 302 302 302 302 302 302 301 301 300 299 299 299 297 296 295 295 296 296 296 296 297 297 298 300 303 304 304 304 304 303 302 303 304 306 306 307 307 308 309 309 310 311 312
298 297 297 297 297 297 297 298 297 298 297 297 297 297 298 297 297 297 297 297 297 298 298 297 297 298 298 298 298 299 299 299 299 299 300 300 300 301 301 301 301 302 302 302 301 301 302 302 302 302 302 301 300 300 299 298 296 296 295 295 295 295 295 295 296 298 300 300 299 299 299 300 301 302 305 306 306 307 307 307 306 306 307 309 310
297 297 297 297 297 297 297 297 297 297 297 297 297 297 297 297 298 298 298 298 298 298 298 297 297 297 297 298 298 299 299 299 299 299 299 299 299 300 300 300 301 301 301 301 300 300 300 301 301 301 301 301 301 301 301 300 299 298 298 297 297 297 296 296 296 297 298 298 297 297 297 298 299 302 304 305 305 305 306 306 306 305 305 306 308
298 298 297 297 297 297 297 297 297 297 297 297 297 297 297 297 297 297 298 298 298 298 298 298 297 297 297 298 298 298 299 299 298 298 299 298 299 299 299 299 300 300 300 300 300 300 300 300 301 301 301 301 301 301 301 300 299 298 298 298 298 298 298 298 299 300 299 298 297 297 296 297 299 300 302 304 304 305 305 306 307 306 305 305 307
298 298 298 298 298 298 298 298 298 297 297 297 297 297 297 297 297 298 297 297 297 297 297 297 297 297 297 297 297 298 298 299 298 298 298 298 298 299 299 299 298 298 299 300 300 300 300 300 300 300 301 301 301 301 300 298 296 296 296 296 297 298 298 299 299 298 297 296 297 297 298 300 301 302 303 304 305 305 306 307 307 307 306 306 306
299 299 299 299 299 299 299 299 298 298 298 298 298 298 298 298 298 298 298 298 298 298 297 297 297 297 297 297 297 298 298 298 299 298 297 297 297 297 298 298 297 296 296 296 298 299 299 298 299 299 299 300 300 300 298 295 295 295 295 295 296 296 296 297 297 296 295 296 297 299 300 301 302 302 303 304 304 305 306 306 307 306 306 306 306
299 299 299 299 299 299 299 299 299 299 299 299 299 298 298 298 298 298 298 299 299 299 299 298 298 298 297 298 298 298 298 298 299 299 298 297 296 296 296 297 296 295 294 295 295 296 296 295 297 298 298 297 297 297 296 295 296 296 296 296 296 296 296 296 296 297 297 297 298 300 300 301 301 302 302 303 303 304 304 305 306 305 305 305 305
299 299 299 299 299 299 299 299 299 299 299 299 299 299 298 298 298 298 298 298 299 299 299 299 298 297 297 298 298 298 298 298 299 299 299 299 298 297 296 295 295 295 294 294 295 295 295 294 295 296 296 296 296 296 296 296 296 296 297 297 297 297 297 297 297 297 297 298 299 300 301 301 301 302 302 302 303 303 303 304 304 304 304 304 303
Wind_Speed
11 16 19 20 19 18 18 18 19 21 21 21 20 19 22 21 18 21 24 22 20 20 18 16 17 17 15 15 15 15 14 13 12 11 10 10 10 11 10 10 10 11 10 10 10 9 9 8 9 9 8 8 7 7 6 6 7 8 8 8 8 8 7 7 7 8 8 8 7 7 8 7 7 6 5 5 5 4 3 4 5 5 4 3 3
12 15 17 20 20 19 19 18 19 22 23 23 21 21 22 22 21 23 23 22 21 22 20 18 20 19 17 17 17 16 15 13 12 11 10 10 10 10 10 10 11 11 11 10 10 9 9 8 9 9 8 7 7 7 7 7 8 8 8 8 8 8 7 8 8 6 6 7 7 7 8 8 7 6 5 5 5 4 3 4 5 5 3 2 2
13 14 15 19 21 20 20 19 20 21 21 22 21 22 25 28 27 23 21 22 22 22 21 21 22 20 19 19 17 17 15 13 11 11 10 10 11 11 10 10 11 11 10 10 10 9 9 9 9 9 8 7 7 8 8 7 7 8 8 8 8 7 7 8 7 5 4 6 6 5 5 5 5 6 5 5 5 5 4 4 5 5 3 1 2
14 14 14 16 18 19 21 20 20 19 20 21 22 24 29 30 26 22 21 21 20 21 21 21 22 20 19 18 15 14 13 12 11 11 10 10 11 11 10 10 10 10 10 10 10 9 9 9 10 10 9 8 7 8 8 7 7 7 7 7 7 8 7 8 7 4 4 5 4 2 3 3 3 5 5 5 6 6 5 5 7 7 4 1 2
13 14 14 15 16 19 21 20 19 19 21 22 23 26 29 26 22 21 21 19 19 21 22 21 20 18 17 16 13 11 12 13 12 11 11 11 11 11 10 11 10 10 10 10 9 9 9 9 10 10 10 9 8 8 8 8 7 7 7 7 7 7 7 8 7 5 4 4 3 1 2 1 1 5 6 5 6 5 6 8 9 8 6 5 5
12 13 13 14 16 18 20 19 18 20 21 22 24 29 28 24 22 21 20 20 19 21 22 21 20 19 19 18 15 14 13 13 13 13 13 13 12 11 10 10 9 10 9 9 9 9 9 9 9 9 9 9 8 7 7 8 8 8 7 7 7 6 6 7 7 6 5 3 1 1 1 3 1 6 5 4 5 5 8 10 10 10 9 7 6
11 13 13 13 15 17 18 18 19 20 22 22 25 30 28 24 24 22 19 19 18 19 21 21 20 19 21 20 18 17 16 14 13 13 14 13 12 12 10 9 9 9 9 8 8 8 9 9 8 8 8 8 8 8 8 8 8 8 8 7 7 7 6 6 6 6 6 4 2 1 0 2 2 5 3 3 5 5 9 11 10 10 9 8 7
10 11 13 13 15 18 18 19 21 21 21 22 24 28 28 24 24 19 15 17 17 17 20 20 20 20 22 20 18 17 16 14 14 14 13 13 13 12 11 10 9 9 9 9 8 8 8 8 8 8 7 8 8 8 8 8 7 7 7 6 6 7 6 5 5 6 6 6 5 4 1 0 2 3 3 2 4 5 7 8 9 9 9 9 7
10 10 12 13 15 18 18 17 19 18 18 20 23 28 30 26 24 19 14 16 16 15 18 19 19 20 20 17 14 14 13 14 15 14 13 13 13 12 11 10 9 9 8 8 8 8 7 8 8 7 7 7 7 7 7 7 7 7 7 6 6 6 6 4 4 7 7 6 7 7 4 3 3 2 2 2 2 5 6 5 7 8 9 8 7
10 9 10 13 14 16 15 12 14 15 14 14 13 19 23 18 18 21 19 17 16 18 19 17 17 18 17 16 15 13 13 14 14 13 13 14 14 12 11 11 10 9 8 7 7 7 7 7 7 8 8 7 7 7 7 7 7 7 7 6 6 6 6 5 4 6 7 5 5 7 6 5 5 4 3 2 2 5 6 6 7 7 8 8 7
8 8 8 10 11 11 9 8 11 11 14 15 9 12 16 14 17 21 21 19 18 20 19 16 17 18 16 18 20 17 16 15 14 14 14 14 14 13 12 11 10 9 9 7 7 7 7 7 7 7 8 7 7 6 7 7 7 7 7 6 6 6 5 5 4 4 4 5 5 5 5 4 4 4 5 4 2 4 6 6 7 8 9 9 8
7 7 7 7 7 6 7 9 10 13 22 19 12 10 14 16 20 18 15 16 17 16 16 16 16 16 16 18 18 16 17 15 15 14 14 14 14 13 11 10 9 9 9 8 7 8 8 8 7 6 6 6 7 6 6 6 6 7 7 6 7 6 5 5 4 4 4 6 5 3 2 2 2 2 5 5 3 4 6 6 8 8 9 10 10
6 6 6 7 7 7 8 9 11 19 22 16 14 11 13 17 22 20 16 15 15 15 17 18 18 15 15 15 15 16 15 14 14 14 13 14 13 13 12 11 10 10 10 9 9 10 9 8 7 6 5 6 6 6 5 5 6 7 7 7 7 7 6 5 5 5 5 5 5 4 3 4 3 2 4 5 4 5 6 7 8 8 9 10 11
6 7 7 6 7 8 10 11 14 20 19 14 11 11 13 17 21 22 20 19 17 19 21 23 22 17 13 12 13 15 15 14 14 14 13 13 12 12 11 10 11 11 11 10 10 11 10 9 8 6 6 6 6 6 5 5 5 5 7 8 8 7 6 5 5 5 6 5 6 6 6 6 4 4 5 6 6 7 7 9 9 9 9 11 11
6 7 7 7 9 11 13 13 13 16 17 15 13 14 16 18 21 22 23 23 21 22 25 26 23 19 15 13 11 12 14 13 12 13 14 13 12 13 11 10 11 11 11 11 11 11 10 9 8 7 7 6 7 6 6 5 5 5 7 7 7 7 7 6 6 6 6 6 6 7 7 6 5 5 6 6 7 7 8 9 9 8 7 8 9
7 7 8 9 10 13 14 13 12 13 15 14 13 15 18 20 22 23 23 23 21 20 24 26 24 21 19 18 15 12 13 13 12 13 14 13 13 13 12 12 12 11 11 11 11 11 10 10 8 8 8 7 7 7 6 6 6 7 7 8 8 8 7 7 6 6 7 7 8 7 7 6 5 5 6 7 7 7 8 9 8 7 7 6 6
6 6 7 8 10 13 14 13 12 13 14 12 11 14 17 19 22 22 21 21 21 20 20 21 25 25 21 23 21 15 14 14 13 13 14 13 13 13 13 12 12 11 11 10 11 11 11 10 9 8 8 8 8 7 7 7 7 8 9 9 9 8 8 7 6 6 6 7 8 7 6 6 5 5 6 7 6 6 8 8 7 7 7 6 5
7 8 8 8 11 14 14 14 14 16 15 13 13 14 16 18 19 21 20 20 20 20 19 19 25 27 23 24 24 19 17 16 13 14 14 13 13 13 13 13 12 11 11 11 11 11 11 10 9 9 9 9 8 8 8 8 8 9 9 9 9 8 7 7 6 7 6 6 7 7 6 6 6 6 7 7 7 7 8 7 6 5 5 5 5
8 8 8 9 10 12 13 13 14 17 17 16 16 16 16 15 16 17 18 19 19 20 21 19 23 27 26 26 25 21 19 16 14 15 15 14 14 13 13 13 12 12 12 12 12 12 11 10 9 9 9 9 9 9 9 9 9 10 10 9 9 8 8 7 7 7 7 7 7 7 7 7 7 7 8 8 8 8 8 8 7 6 5 5 5
7 7 7 9 9 10 12 12 12 15 16 17 17 17 15 13 13 14 16 18 18 19 21 21 24 28 28 26 24 22 19 16 15 16 15 14 14 13 13 13 13 12 12 12 12 12 11 10 9 9 9 9 10 10 10 10 10 10 10 10 9 8 8 8 7 8 9 9 9 8 8 8 8 9 9 9 9 9 8 7 7 6 6 5 4
5 5 6 8 9 10 11 11 11 12 14 15 15 16 15 12 11 13 16 18 19 19 21 21 23 26 26 25 24 21 18 16 16 17 16 14 14 13 13 13 13 12 12 12 12 12 12 11 10 9 8 9 10 11 10 11 11 10 9 9 8 8 9 8 7 8 9 10 10 10 10 10 9 10 10 9 10 9 7 6 6 5 5 4 2
7 6 5 5 6 9 10 10 11 11 12 13 13 15 16 14 12 13 16 18 20 20 21 20 20 22 24 24 22 20 19 18 18 17 16 14 14 13 13 12 12 12 12 12 11 11 11 11 10 9 8 9 10 11 11 11 11 10 9 8 7 8 9 8 8 8 9 10 10 11 11 11 10 10 10 9 9 9 7 6 5 3 4 4 2
10 9 7 5 3 1 4 6 9 10 10 10 12 15 16 14 12 14 16 19 20 21 21 20 19 20 21 21 19 18 19 20 19 17 16 15 14 13 12 12 12 12 12 12 11 11 11 11 11 9 8 9 11 11 11 11 11 10 9 7 6 7 8 8 8 9 10 10 11 11 11 10 10 10 8 7 7 6 5 4 3 2 2 3 3
10 9 8 8 9 7 4 4 7 8 7 6 7 11 14 12 10 12 15 18 20 20 19 19 19 19 19 19 18 18 19 20 18 16 16 15 14 13 12 12 12 12 12 11 10 11 12 12 11 10 9 9 11 11 11 10 10 9 8 8 8 8 8 8 8 9 9 10 10 11 10 10 10 9 7 6 5 5 3 2 2 3 3 3 3
10 9 8 9 10 7 3 4 8 8 7 5 3 5 8 10 9 11 12 15 17 17 17 17 16 15 13 12 11 12 16 19 18 16 16 15 14 14 12 11 12 12 11 10 10 11 11 11 11 10 10 10 10 11 11 10 10 9 8 8 9 9 9 8 8 8 8 8 9 9 9 9 8 7 6 5 5 4 3 2 2 3 3 2 2
10 9 8 9 10 8 4 4 7 8 7 5 2 2 3 5 6 8 11 14 15 15 15 15 14 14 14 12 12 10 11 16 17 16 17 16 15 14 13 11 11 11 11 10 10 11 11 11 10 9 9 10 10 11 10 10 10 9 9 9 9 9 9 8 8 7 7 7 7 8 8 7 7 6 6 5 5 4 3 2 2 2 2 2 2
9 9 9 10 11 10 9 7 9 10 8 5 3 2 3 5 4 5 8 12 14 14 15 15 16 17 17 18 20 16 11 12 15 16 17 16 15 14 12 11 11 11 11 10 10 10 10 10 9 8 8 9 9 10 10 10 10 9 9 9 8 8 8 8 7 7 6 6 6 6 6 6 5 5 5 5 4 4 3 3 2 2 2 1 2
10 10 11 11 10 10 11 12 12 12 10 8 7 5 6 7 8 7 7 10 13 15 15 16 17 18 18 19 20 17 12 10 11 13 15 15 14 13 11 10 10 10 10 10 10 10 9 9 9 8 8 8 9 10 9 9 10 9 9 8 7 8 8 8 7 6 6 5 5 5 5 5 4 4 5 5 4 4 3 3 3 2 2 3 4
11 11 11 11 9 8 10 13 14 13 12 11 10 9 9 9 9 9 9 10 12 14 15 16 16 16 16 17 16 14 15 13 9 10 13 13 13 12 11 11 10 9 8 8 8 9 9 9 9 8 8 8 8 8 9 9 9 9 8 7 6 6 6 6 6 5 5 4 4 4 4 4 5 5 5 5 4 4 4 3 2 2 3 3 4
10 10 10 10 10 10 10 12 13 13 13 13 13 12 12 13 11 10 11 12 12 12 12 14 15 15 16 17 15 14 16 14 11 11 12 12 12 12 11 11 10 8 7 6 6 6 7 8 9 9 8 8 7 8 9 10 9 8 7 6 6 6 5 5 5 5 5 4 4 4 4 5 5 5 4 4 4 4 3 3 4 4 4 4 5
10 10 10 10 11 12 12 13 13 14 14 13 14 13 14 15 15 14 14 13 15 16 16 16 18 17 17 17 17 18 19 19 17 15 15 15 14 13 13 12 11 10 8 7 6 6 6 7 7 8 8 7 7 8 9 9 8 8 6 4 5 5 5 5 5 6 5 5 6 6 6 6 6 6 6 5 4 4 4 4 4 5 6 6 7
10 10 10 10 11 12 13 14 14 15 15 14 14 14 15 17 18 18 16 17 19 19 17 17 19 19 18 18 18 20 21 21 21 20 19 18 15 13 12 10 10 10 9 8 7 6 6 7 7 8 7 6 6 7 7 8 8 8 7 5 4 5 6 6 6 7 6 6 6 7 7 6 7 7 7 6 6 7 6 7 7 7 8 9 9
10 10 10 10 10 12 14 14 14 16 16 14 15 15 15 18 21 21 21 22 23 20 17 17 17 17 16 16 17 18 18 18 19 18 16 14 11 8 6 6 7 7 6 8 8 7 7 8 8 8 7 5 4 4 5 7 7 8 8 7 6 5 6 7 7 7 7 7 7 8 8 7 8 9 9 8 8 9 9 10 11 11 12 12 13
10 10 10 10 11 12 13 14 15 16 16 15 17 19 20 21 22 23 23 24 24 22 20 18 17 17 16 15 15 16 15 16 16 16 15 14 12 10 8 8 8 8 7 7 8 8 8 9 8 8 7 4 2 2 3 6 6 7 8 8 7 7 8 8 8 8 8 8 8 8 8 9 9 9 9 9 9 9 10 12 13 13 14 15 16
11 11 12 12 13 14 14 13 13 14 15 15 16 18 22 24 25 25 25 25 26 25 22 19 18 18 18 17 17 18 18 18 17 17 17 15 13 12 12 12 12 12 11 10 10 9 10 10 9 8 6 4 2 1 1 3 4 5 6 5 5 6 7 7 7 8 8 9 9 9 10 11 10 10 10 11 10 10 10 11 12 13 14 15 16
11 12 13 13 14 14 14 14 13 14 15 16 16 16 20 23 24 25 25 24 25 26 24 22 21 19 18 18 17 18 19 19 20 21 20 18 17 15 14 14 14 15 15 15 14 13 13 12 11 8 7 6 5 3 2 1 2 3 3 2 3 4 4 5 5 6 6 7 7 7 8 8 9 9 10 12 12 11 11 12 13 14 15 15 16
13 13 12 12 14 16 16 15 16 17 18 18 18 18 21 24 23 23 23 22 23 23 21 22 22 21 21 20 19 19 19 18 19 21 20 20 19 17 16 16 17 17 17 18 18 17 16 16 15 12 10 9 7 6 4 3 1 0 1 1 1 3 3 4 4 5 5 6 7 8 9 10 10 10 10 12 13 12 12 12 14 15 16 15 16
13 12 12 12 14 17 18 17 18 19 20 23 24 23 25 26 23 21 22 22 21 20 19 19 19 19 21 22 22 22 21 18 17 17 18 19 18 17 17 18 17 17 16 17 17 16 15 14 13 12 10 8 7 6 5 3 2 1 0 1 1 2 2 3 3 4 5 6 8 11 13 12 12 11 12 13 14 12 12 13 14 15 16 16 16
12 12 12 12 13 15 18 19 19 18 19 23 29 29 27 25 22 21 22 22 21 20 19 19 19 19 20 21 22 22 22 21 19 18 18 18 17 16 16 15 14 14 14 14 13 13 12 10 9 8 7 5 4 3 2 1 1 1 0 1 1 2 2 2 3 3 5 6 7 9 10 11 11 12 14 14 13 13 13 14 15 15 16 17 17
12 13 13 12 12 14 17 18 17 16 15 18 25 29 26 21 20 21 21 20 19 18 18 18 19 18 18 17 17 18 19 19 18 18 18 17 16 15 15 14 12 12 13 11 10 10 10 9 7 6 4 2 1 1 2 2 2 3 3 2 1 2 3 4 5 6 7 8 7 7 9 12 13 14 15 15 14 15 15 14 14 14 16 16 15
13 15 16 15 15 15 16 15 14 14 14 14 20 24 21 18 20 22 20 18 17 16 16 17 18 18 17 16 15 15 14 14 13 13 13 13 13 13 13 12 10 10 11 10 9 8 8 7 6 5 4 2 1 1 2 3 4 5 5 4 3 4 6 6 6 7 7 8 8 6 7 12 15 15 15 15 15 16 16 16 16 16 17 17 16
13 15 16 15 15 17 18 18 16 15 14 14 18 21 19 18 20 20 17 16 16 15 15 15 16 17 17 16 15 15 14 12 11 11 10 10 10 10 10 9 8 8 8 8 7 6 5 5 3 2 1 1 2 3 4 5 6 6 7 5 4 6 7 6 6 6 7 7 7 5 8 14 17 16 16 17 18 17 18 19 20 21 21 20 20
11 12 12 11 12 14 17 18 18 18 18 17 18 19 18 18 18 16 15 15 15 14 13 13 14 14 14 13 14 14 13 12 11 10 9 8 8 7 7 7 6 6 6 5 5 4 4 3 2 1 1 3 4 5 7 7 8 8 9 8 8 8 8 7 7 7 8 8 6 6 9 15 17 17 17 18 19 19 19 21 22 22 21 19 19
10 11 10 10 12 12 13 14 15 17 19 19 19 18 17 17 16 14 14 15 13 12 13 13 12 12 12 12 12 12 11 10 9 8 7 7 6 6 5 5 5 4 4 4 4 3 2 2 1 1 1 2 3 3 5 7 7 7 7 7 8 8 8 9 9 8 8 8 9 10 14 17 18 17 18 18 19 19 19 20 19 18 17 17 19
10 11 11 11 12 13 14 14 14 14 14 15 16 17 16 14 12 10 11 11 11 11 12 12 12 12 11 11 11 11 10 9 8 8 8 7 7 6 6 5 5 4 4 3 3 2 2 2 1 1 1 1 1 1 3 5 8 8 6 7 8 8 9 9 9 8 9 11 14 15 16 17 17 17 17 17 16 16 17 18 17 16 16 17 18
11 12 12 13 13 14 15 15 15 14 14 13 13 14 14 12 10 9 9 9 10 11 11 11 11 12 12 11 10 10 10 10 9 8 8 8 7 7 6 5 5 5 4 4 4 3 3 2 2 2 2 2 2 1 1 3 6 8 8 9 10 10 10 10 9 9 10 12 15 16 16 17 17 17 16 16 15 15 17 19 18 17 17 17 16
11 11 11 12 13 13 13 13 13 12 12 12 12 12 12 11 10 10 10 10 10 11 11 11 11 11 12 12 11 10 10 10 10 9 8 8 8 7 7 7 6 6 5 5 4 4 4 4 4 4 4 3 3 2 3 5 7 8 8 9 9 9 10 10 8 7 9 11 14 16 16 16 15 15 15 16 16 17 16 15 14 13 13 12 12
9 9 10 10 11 11 11 11 11 10 9 10 10 10 9 9 9 9 9 10 11 10 10 10 10 10 10 10 10 11 9 9 10 10 10 9 8 8 8 8 8 7 6 6 6 6 6 6 6 6 6 5 4 4 5 7 9 10 10 9 9 8 8 8 7 9 12 13 14 14 13 12 12 12 12 12 13 13 12 11 11 11 11 10 10
8 8 8 9 10 10 10 10 9 9 8 9 9 9 8 8 8 7 7 8 9 8 8 8 8 8 8 8 8 9 8 7 7 8 9 10 10 8 6 6 7 6 4 3 4 5 6 6 7 6 6 6 4 4 6 8 9 9 10 10 10 9 9 9 9 11 14 14 12 10 10 10 10 10 10 10 11 11 10 10 10 11 11 11 10
7 8 8 8 8 9 9 9 9 8 8 9 9 9 8 8 8 8 7 7 7 6 7 7 7 7 7 6 6 6 7 6 6 5 5 7 9 10 9 6 5 6 6 5 4 3 4 5 5 5 6 7 7 7 8 8 9 9 10 11 11 11 11 12 12 13 14 13 10 9 9 9 8 9 10 10 10 10 10 9 9 9 11 11 11
8 8 8 8 8 8 8 8 8 8 8 8 8 8 9 9 9 9 9 8 7 6 6 6 7 7 6 5 5 6 5 5 5 5 4 4 5 8 11 10 8 7 7 7 6 6 6 6 6 6 6 8 9 9 9 9 10 11 12 12 13 13 13 13 13 13 12 11 9 9 8 8 8 8 9 9 10 10 10 10 9 10 11 11 10
Wind_Direction
186 200 198 197 199 197 197 197 194 193 190 189 182 177 185 186 185 192 194 194 190 184 182 180 177 179 183 187 190 185 179 180 182 183 183 181 178 176 178 182 184 185 188 188 187 185 180 171 166 166 164 163 162 160 163 170 170 161 152 153 154 150 148 146 142 140 136 128 123 115 112 112 113 119 118 118 126 138 153 151 141 134 140 157 135
186 194 194 198 201 198 199 199 197 196 192 187 182 180 185 186 189 193 195 195 191 187 185 182 181 182 184 185 188 185 179 178 180 181 181 179 177 176 180 184 183 184 182 180 181 181 179 174 171 169 164 162 158 156 161 168 171 161 153 158 159 153 148 150 152 155 160 152 145 141 129 118 116 120 118 118 123 128 150 154 134 120 131 147 135
193 189 187 198 204 201 202 204 202 199 191 187 184 181 185 192 194 190 193 198 194 189 187 185 183 183 185 185 186 185 178 175 176 175 175 173 174 175 177 179 178 179 176 174 177 180 181 177 172 167 163 168 163 155 159 169 172 163 161 164 158 152 150 158 169 188 188 164 164 168 147 136 135 130 123 117 111 108 123 146 143 131 133 151 122
199 194 186 194 202 202 204 206 204 199 190 185 180 178 186 195 195 188 191 195 194 190 188 188 185 183 186 184 182 180 171 168 165 164 169 168 170 173 172 172 172 175 174 174 176 178 180 177 173 169 168 176 168 158 165 172 170 164 167 171 165 161 160 165 177 204 195 177 198 203 158 178 169 143 145 122 103 105 100 102 124 134 131 118 89
201 203 195 191 197 202 206 206 202 200 191 182 178 179 187 190 190 191 191 189 192 191 186 185 184 181 181 177 174 168 158 161 162 161 168 168 168 170 170 169 170 173 175 175 176 174 176 176 174 171 172 177 170 164 170 172 171 170 172 178 178 174 170 171 176 188 193 206 271 344 139 231 152 149 163 116 92 102 100 93 103 114 112 106 100
201 207 201 195 196 200 206 204 201 202 195 184 178 183 186 181 186 194 190 188 192 192 186 182 182 180 178 176 174 169 164 169 168 165 169 167 167 168 167 169 171 174 175 174 172 170 172 172 171 172 173 175 170 168 171 172 174 174 176 182 187 191 184 175 171 170 179 200 316 70 179 274 141 159 176 111 101 104 99 97 96 103 102 95 92
201 204 201 199 197 199 205 203 204 205 200 189 179 185 185 173 181 191 187 188 188 189 189 182 182 183 181 182 180 172 170 173 170 166 168 164 163 165 166 170 174 174 173 171 169 167 169 169 170 171 172 174 171 169 172 175 177 175 177 183 186 192 192 182 168 164 175 184 194 142 216 309 136 167 189 133 137 113 96 96 92 94 91 83 79
199 204 203 202 200 204 206 205 208 208 201 192 182 184 181 171 181 186 181 187 188 191 192 185 185 186 185 187 185 177 169 165 163 162 164 162 162 164 165 169 174 175 173 170 168 165 166 167 168 168 171 175 174 175 176 174 173 171 174 179 181 184 187 187 169 171 185 180 185 203 194 127 152 188 231 174 141 128 116 108 96 87 80 78 79
198 206 207 205 204 207 207 205 208 203 196 193 184 180 181 180 183 182 186 195 195 196 193 189 188 187 187 185 184 179 164 157 157 156 158 159 160 162 164 166 170 170 169 169 168 165 162 161 163 166 170 174 174 175 172 165 163 165 170 173 175 177 180 189 176 182 201 189 182 198 191 176 177 179 222 230 140 137 139 127 116 104 86 81 80
200 206 209 212 209 206 205 203 205 198 182 179 168 160 165 164 158 170 193 202 200 201 197 194 192 192 191 181 179 177 159 154 154 149 152 156 159 161 162 164 164 163 164 166 165 162 160 160 164 168 168 170 171 170 165 157 154 156 164 168 169 171 173 186 195 193 205 205 189 194 190 182 180 167 174 197 152 136 136 140 143 132 110 97 92
202 204 203 205 204 198 187 173 185 172 132 131 130 132 145 143 142 167 194 198 196 206 206 199 193 196 196 183 181 174 155 151 151 148 153 156 160 162 162 163 162 161 163 163 163 162 162 163 165 167 164 166 166 167 166 158 150 150 154 159 164 171 169 178 205 206 199 204 199 202 205 189 179 172 164 168 165 139 136 139 136 131 124 118 116
197 200 191 185 180 164 147 153 162 124 110 133 171 159 145 148 149 165 200 200 190 199 208 204 197 200 201 190 180 165 153 153 153 153 157 159 162 163 163 164 162 164 165 163 164 162 159 155 154 156 160 165 164 163 167 160 151 150 151 155 160 168 173 176 190 193 194 200 196 206 228 184 176 171 155 156 155 141 143 137 131 134 130 122 125
184 181 167 161 160 147 147 155 136 110 114 150 183 160 135 135 143 160 191 197 186 187 198 200 194 194 199 192 176 161 159 160 156 157 161 164 164 164 166 166 165 168 167 165 165 161 155 149 148 149 152 161 162 157 160 160 156 153 151 152 154 162 173 180 183 180 190 199 188 190 192 167 165 154 148 150 139 139 145 138 137 142 135 128 132
165 164 162 170 173 160 151 146 130 123 135 168 171 142 133 133 139 156 177 185 183 189 195 192 183 181 189 193 180 169 168 166 163 163 165 168 167 166 168 167 166 168 167 167 166 162 157 150 147 140 137 146 152 150 150 153 154 151 145 141 145 155 162 170 173 172 185 197 187 185 179 165 152 144 154 156 146 145 149 148 148 145 139 136 137
158 167 173 179 167 152 146 146 148 145 153 171 171 147 138 140 144 156 175 181 179 186 192 186 177 173 181 192 189 181 178 174 169 167 168 170 167 166 168 165 165 166 166 168 168 165 158 149 142 131 128 136 141 141 141 142 141 138 134 130 135 145 151 159 164 166 176 184 184 182 175 166 152 149 160 158 148 147 150 155 153 145 142 140 138
171 176 170 166 157 152 155 164 169 156 149 162 172 158 152 159 163 165 175 179 176 183 188 183 176 174 182 191 192 193 191 183 175 172 172 170 164 164 165 164 163 162 163 166 168 167 159 149 141 129 128 135 136 136 136 136 134 131 130 127 128 136 144 151 154 159 168 173 177 180 175 168 156 151 155 149 143 141 146 155 154 148 144 140 141
157 156 152 152 153 154 165 177 166 144 143 155 161 164 170 176 173 168 171 175 177 182 183 180 179 180 184 188 190 198 199 187 178 174 172 168 163 163 163 162 161 159 159 163 166 166 159 153 143 131 131 135 136 137 133 133 133 131 130 126 125 131 137 142 146 150 159 166 171 175 171 160 150 147 145 140 139 134 137 149 153 151 148 146 151
111 127 133 135 148 158 170 178 158 138 141 149 152 166 180 181 172 167 169 172 174 177 178 179 182 182 183 185 189 200 199 187 181 178 172 168 165 164 164 163 160 157 157 161 164 163 159 156 146 135 136 138 139 139 135 134 133 131 128 123 125 129 130 133 136 140 149 156 160 163 159 145 140 141 137 137 138 133 133 138 133 129 133 139 143
117 130 132 133 153 171 177 172 151 139 141 146 152 167 176 177 170 164 166 168 170 176 176 176 181 182 181 183 190 200 197 186 180 177 174 173 170 167 168 166 162 160 159 160 162 163 162 160 153 144 141 141 142 140 137 134 131 129 127 121 120 121 119 121 124 130 136 142 147 148 141 134 136 137 136 138 140 138 136 127 111 101 99 107 128
132 135 133 137 162 183 179 167 148 138 140 148 157 168 171 172 170 165 166 168 170 175 176 176 180 182 180 182 191 197 193 184 178 176 177 178 174 171 171 169 166 165 163 163 164 165 166 165 160 153 146 145 145 142 138 135 132 131 129 125 122 121 116 111 113 123 126 128 136 137 130 129 135 137 137 141 145 146 144 125 111 107 104 108 132
115 120 131 144 169 183 173 162 151 142 144 151 159 166 167 169 172 168 168 170 172 175 177 177 178 180 180 184 190 191 187 181 179 178 179 178 176 174 172 170 168 167 167 168 167 167 169 169 165 158 151 148 146 143 139 138 136 133 130 129 128 127 122 112 108 118 122 120 123 126 125 126 130 134 137 141 145 148 149 135 125 125 124 128 152
65 69 89 133 173 184 174 164 151 143 147 154 160 166 168 172 174 169 168 171 173 175 177 176 175 179 183 184 185 183 182 183 181 178 178 176 175 173 169 167 168 167 167 169 168 168 171 170 166 161 152 148 148 144 142 141 141 137 134 133 134 132 127 119 113 118 126 125 123 124 125 124 126 132 137 141 145 151 159 155 148 152 149 153 174
50 48 42 44 44 104 166 155 137 135 143 155 166 170 170 172 171 170 172 173 174 175 176 175 174 176 179 181 180 177 181 184 181 177 177 175 171 169 166 165 165 164 166 168 168 170 172 170 166 161 152 148 148 146 144 144 144 142 140 137 137 137 135 132 126 124 128 131 131 130 129 129 132 136 139 139 140 153 170 168 166 184 199 203 201
48 48 43 37 34 35 42 85 116 125 123 140 180 180 174 174 172 173 175 172 172 175 175 175 175 174 174 176 175 173 179 183 180 177 176 171 169 168 166 163 161 162 163 163 166 170 171 168 165 164 159 151 149 150 149 147 146 145 142 138 137 140 142 141 136 130 130 132 135 136 137 140 141 140 142 141 141 155 174 175 185 205 211 225 224
46 47 49 46 40 36 43 119 133 125 113 131 207 205 185 183 176 171 170 168 169 173 175 175 169 158 150 152 159 166 175 179 177 175 172 169 168 168 164 160 158 159 159 158 162 169 170 168 167 167 166 157 153 154 154 151 148 144 142 140 139 139 141 141 137 134 133 133 135 139 141 143 145 146 149 151 153 165 185 190 210 223 204 197 232
46 43 47 50 44 32 27 92 106 90 90 128 195 254 193 177 169 165 166 169 170 171 175 168 148 137 135 140 155 167 175 176 173 170 170 168 168 166 163 159 156 155 157 159 163 168 171 170 168 170 171 164 157 155 155 155 153 151 148 144 141 142 143 142 141 140 140 140 141 144 146 150 153 156 157 159 161 166 183 186 204 252 220 163 202
48 45 45 49 45 27 13 37 66 65 65 86 97 64 103 119 135 162 168 168 170 172 172 156 141 152 165 171 173 173 172 172 169 166 166 165 165 164 159 156 154 153 156 160 164 169 172 170 166 167 168 164 158 155 153 154 155 156 153 149 147 147 145 144 144 141 139 141 146 149 154 158 161 161 160 163 165 167 176 173 169 221 237 200 210
43 42 39 39 40 23 6 18 42 51 51 62 74 82 105 125 137 147 152 159 164 166 164 150 142 154 167 170 168 165 160 158 157 158 159 158 158 157 151 147 146 147 154 161 165 166 168 167 163 161 162 161 158 153 151 154 156 157 155 154 155 154 151 148 147 143 139 138 143 147 152 154 156 160 159 161 168 168 169 168 164 184 210 225 229
42 41 36 33 35 30 16 21 34 40 43 49 57 70 89 104 117 127 134 148 159 158 153 146 138 138 145 151 154 160 165 159 142 141 146 145 144 142 137 136 137 142 150 154 159 166 169 167 159 155 155 155 154 153 154 157 156 157 160 161 160 160 160 158 154 153 153 156 159 156 159 165 168 171 169 168 172 171 171 177 178 196 213 228 241
49 48 47 42 42 42 36 35 38 40 44 48 47 54 71 79 87 102 117 132 142 138 132 131 125 122 131 142 143 147 152 146 129 123 122 120 121 122 122 124 128 135 141 141 146 154 162 163 159 155 150 148 150 154 159 162 159 159 163 165 167 170 173 174 174 175 175 182 189 186 189 198 200 196 193 190 184 180 188 193 196 212 227 237 245
52 53 53 51 49 48 43 42 44 46 51 53 52 53 62 72 78 82 92 107 114 114 116 121 122 123 128 135 135 136 139 138 134 127 118 115 117 115 112 112 118 129 137 144 148 142 148 155 151 145 141 145 158 162 164 169 173 176 177 175 180 186 190 194 196 195 194 196 201 202 208 220 225 222 222 226 224 218 221 225 226 232 240 245 246
54 56 55 52 50 48 44 40 42 49 52 54 60 62 59 68 80 85 91 97 97 98 103 108 116 125 129 131 133 133 133 134 134 132 127 124 123 116 111 110 118 125 127 135 144 149 156 148 131 129 137 153 173 179 180 186 193 202 208 210 211 210 207 209 211 210 209 204 203 205 210 218 227 228 228 233 243 250 252 252 254 254 254 255 252
52 55 56 56 56 53 50 47 48 53 55 57 65 70 65 68 79 85 90 93 94 94 93 91 100 112 118 122 123 120 120 126 133 136 136 139 143 142 142 145 144 143 134 128 129 132 135 128 125 135 141 150 176 198 211 214 216 222 226 228 232 231 225 223 224 223 223 218 215 218 219 222 232 240 240 236 240 251 258 260 261 259 259 259 257
53 54 57 62 66 65 61 57 58 60 63 66 70 76 78 79 80 81 82 85 88 90 89 87 89 95 104 112 116 116 118 128 140 146 152 166 181 185 183 175 166 168 163 143 133 130 125 118 120 126 117 105 128 202 228 231 231 233 237 238 237 238 240 240 239 238 238 234 229 231 234 233 238 246 246 238 236 244 252 257 259 256 255 257 258
55 55 58 59 64 70 66 58 59 64 67 68 69 74 80 80 79 79 77 78 80 81 83 84 83 84 94 104 111 116 119 124 132 139 144 152 161 163 161 157 153 151 148 142 139 137 130 119 110 107 97 82 75 91 209 220 221 226 231 230 230 238 243 244 244 244 246 247 244 245 248 248 246 244 240 236 236 239 242 246 249 250 250 252 253
58 56 52 44 46 56 57 53 59 67 68 68 66 70 76 75 73 75 75 73 74 75 77 81 81 81 86 92 96 103 109 113 122 128 131 131 130 129 132 134 135 133 131 131 130 127 124 121 113 108 107 101 92 82 86 159 202 221 224 222 237 245 243 244 245 243 246 251 249 247 252 256 255 248 242 243 246 243 243 248 251 253 254 254 251
65 61 50 38 41 52 52 50 57 63 67 70 68 68 73 71 66 67 70 68 69 71 70 73 76 79 87 92 93 95 97 100 107 114 118 121 120 118 119 121 122 119 116 118 118 115 115 117 116 114 114 108 97 87 78 74 75 194 214 219 277 267 256 260 262 259 262 261 256 261 268 272 276 268 254 253 255 250 247 250 253 255 256 254 252
64 60 49 40 46 55 55 53 56 58 66 77 79 74 73 71 63 61 64 63 63 65 65 66 68 71 82 91 95 97 98 96 95 98 104 109 112 113 116 119 116 111 108 108 109 109 108 111 114 114 112 106 97 86 75 69 61 42 108 110 358 302 279 279 278 277 283 278 274 278 275 266 262 259 252 253 256 253 250 251 254 256 257 255 255
56 53 50 44 46 57 62 60 56 53 59 76 84 81 76 70 65 61 61 59 56 57 63 68 72 74 79 85 89 93 97 98 97 97 101 106 108 109 112 113 111 112 112 109 110 111 109 110 117 124 124 121 111 94 68 57 34 356 27 99 51 1 330 318 309 295 288 279 275 280 276 260 249 248 250 254 258 255 252 254 258 260 259 259 261
56 52 53 50 47 55 60 58 54 52 53 67 80 80 73 68 68 65 61 58 54 55 61 67 73 75 75 75 77 81 86 90 92 96 100 103 105 107 110 109 109 112 113 111 114 117 115 111 113 118 123 136 175 235 268 280 297 311 320 329 318 303 301 305 299 288 283 279 271 268 269 266 260 255 253 254 254 252 249 250 256 260 261 263 268
63 62 63 59 54 57 62 60 58 59 54 57 72 75 68 65 69 66 62 62 62 61 61 63 68 71 72 71 71 72 74 75 77 85 92 97 100 102 103 101 101 108 114 114 113 113 114 114 112 108 102 106 177 238 289 290 285 293 307 316 297 270 272 281 285 277 270 270 269 264 262 262 260 260 259 257 256 254 251 249 248 249 251 253 260
72 71 70 64 60 64 68 70 71 71 66 62 69 71 67 64 66 64 64 68 68 66 65 64 65 66 66 66 67 67 68 67 66 70 75 79 84 87 87 88 91 98 106 109 106 101 101 102 110 124 116 305 291 294 303 301 295 292 296 302 292 274 273 283 292 286 272 265 268 271 269 269 271 274 277 277 276 273 267 261 256 253 251 251 253
81 75 73 70 70 71 71 72 74 77 79 77 73 72 69 66 65 64 68 70 67 64 65 64 64 63 60 58 59 59 60 59 58 60 63 63 64 67 69 73 80 86 91 92 88 89 97 94 82 44 324 327 322 313 307 304 303 301 301 301 293 284 282 280 280 285 288 291 294 286 275 279 286 291 290 288 287 285 281 277 274 269 265 259 253
87 82 78 77 79 80 79 76 73 74 79 81 81 80 77 72 69 68 70 70 66 63 61 59 59 60 58 56 54 52 51 50 49 51 55 57 58 60 61 62 65 71 82 85 79 74 83 88 79 65 13 350 346 328 314 316 318 312 303 298 294 292 290 285 281 285 292 292 289 283 279 282 288 289 286 285 285 284 283 283 282 278 270 259 250
89 87 83 80 80 80 78 75 70 69 72 76 80 82 80 77 75 71 69 67 62 60 61 60 59 58 56 55 55 51 48 45 42 42 45 44 43 46 49 52 54 57 62 67 69 65 58 44 40 59 53 11 20 351 314 330 342 341 331 322 318 312 304 299 293 288 284 281 278 279 281 284 284 282 282 284 285 284 283 282 280 276 268 259 252
92 88 85 84 82 78 75 71 68 67 68 68 70 74 74 73 70 66 65 65 62 60 60 58 57 55 51 48 48 46 44 40 38 40 42 40 37 39 40 38 41 45 48 46 41 35 34 35 29 27 28 23 22 25 2 355 357 355 346 339 339 335 328 328 322 306 299 296 290 286 286 287 287 284 281 282 283 283 283 284 284 280 270 259 252
102 96 91 87 84 81 78 75 70 67 66 67 67 69 69 68 65 61 60 59 56 56 56 54 52 49 46 44 41 38 37 38 37 37 38 39 38 39 40 37 33 29 28 33 35 25 20 20 15 9 9 12 13 27 33 13 359 352 343 336 337 335 333 337 335 321 318 314 305 300 298 295 291 286 281 281 282 283 283 282 283 283 274 260 248
111 109 102 96 93 91 87 83 79 75 70 69 68 68 67 67 65 62 61 59 56 54 54 54 52 47 44 42 40 38 38 39 40 40 39 37 33 32 35 34 27 21 17 15 15 17 15 9 2 358 357 356 8 30 22 358 345 342 339 336 333 330 330 332 324 313 317 317 309 303 300 293 285 279 277 277 277 276 274 270 269 274 275 269 257
118 115 108 104 103 103 99 94 92 89 84 80 78 75 73 72 71 69 69 68 67 66 65 63 58 51 46 43 41 41 41 42 48 51 49 42 35 36 43 34 18 18 34 38 20 14 11 3 355 354 353 349 352 360 349 338 338 339 337 334 330 323 321 322 315 314 320 320 310 296 288 282 276 273 272 272 272 271 272 272 273 275 275 274 269
120 115 110 108 105 103 101 98 95 95 91 87 86 83 79 76 72 68 67 68 71 74 74 71 65 55 49 48 51 51 49 49 54 64 67 54 41 39 49 53 34 27 41 55 51 24 7 1 352 344 337 332 331 333 334 340 347 345 338 333 328 322 319 318 317 321 323 317 302 292 290 287 283 279 278 278 280 281 281 281 281 279 275 275 275
125 119 117 115 111 109 106 99 95 95 91 87 86 82 78 73 65 59 55 53 53 59 67 69 64 54 47 48 54 54 52 52 51 49 58 77 66 48 42 42 44 45 45 45 44 36 27 21 12 357 339 329 328 336 345 349 346 340 335 327 319 315 314 313 315 321 320 307 294 296 302 299 295 292 289 289 290 289 288 288 288 282 276 277 279